Location: *
(37.9500°N, 27.3666°E)
Time: 14:04:23
(UTC+00:00)

CZ-4 R/B - Pass Details

Date: 24 October 2021
Orbit: 531 x 595 km, 97.8° (Epoch: 03 December)

Event Time Altitude Azimuth Distance (km) Brightness Sun altitude
Exits shadow 18:01:06 11° 226° (SW) 1,756 4.2 -32.2°
Maximum altitude 18:03:33 18° 266° (W) 1,413 4.0 -32.6°
Drops below altitude 10° 18:06:24 10° 311° (NW) 1,885 4.7 -33.2°
Sets 18:09:09 0° 330° (NNW) 2,801 5.4 -33.7°
